Tracking 28790 objects as of 19-Apr-2024
HD Live streaming from Space Station
objects crossing your sky now

COSMOS 1564

Track COSMOS 1564 now!
10-day predictions
COSMOS 1564 is classified as:


NORAD ID: 15003
Int'l Code: 1984-052F
Perigee: 1,431.5 km
Apogee: 1,482.0 km
Inclination: 74.0 °
Period: 114.9 minutes
Semi major axis: 7827 km
RCS: 0.6974 m2 (medium)
Launch date: May 28, 1984
Source: Commonwealth of Independent States (former USSR) (CIS)
Launch site: PLESETSK MISSILE AND SPACE COMPLEX (PKMTR)
Your satellite tracking list
Your tracking list is empty




NASA's NSSDC Master Catalog

Two Line Element Set (TLE):
1 15003U 84052F   24109.54236213  .00000003  00000-0  12137-3 0  9990
2 15003  74.0108 155.3571 0032272  59.7765  50.1164 12.53564538825311
Source of the keplerian elements: AFSPC